WTB24N TNCM-MDSD

Flight info

Callsign WTB24N
Flight time 1h 10m
Altitude 36000
Route DCT
Aircraft A320/M-SDE3FGHIRWY/LB1

Departure

Time 2026-05-04 18:31
Airport Princess Juliana International Airport (TNCM)

Arrival

Time 2026-05-04 19:41
Airport Las Américas International Airport (MDSD)
Time Latitude Longitude Altitude Speed Heading
2026-05-04 17:51 18.04332 -63.11362 22 ft 0 kts 351°
2026-05-04 18:19 18.04331 -63.11362 22 ft 1 kts 352°
2026-05-04 18:20 18.04317 -63.11359 22 ft 2 kts 351°
2026-05-04 18:20 18.04302 -63.11357 21 ft 2 kts 352°
2026-05-04 18:20 18.04291 -63.11356 21 ft 0 kts 351°
2026-05-04 18:20 18.04278 -63.11352 21 ft 2 kts 331°
2026-05-04 18:21 18.04266 -63.11343 20 ft 2 kts 311°
2026-05-04 18:21 18.04257 -63.11329 20 ft 2 kts 290°
2026-05-04 18:21 18.04255 -63.11314 20 ft 2 kts 268°
2026-05-04 18:21 18.04257 -63.11298 20 ft 1 kts 247°
2026-05-04 18:22 18.04260 -63.11292 20 ft 1 kts 238°
2026-05-04 18:22 18.04262 -63.11290 20 ft 0 kts 241°
2026-05-04 18:24 18.04240 -63.11308 20 ft 6 kts 191°
2026-05-04 18:24 18.04188 -63.11304 19 ft 8 kts 173°
2026-05-04 18:25 18.04124 -63.11293 18 ft 8 kts 171°
2026-05-04 18:25 18.04120 -63.11292 18 ft 0 kts 172°
2026-05-04 18:27 18.04100 -63.11289 18 ft 10 kts 172°
2026-05-04 18:28 18.04035 -63.11332 18 ft 12 kts 254°
2026-05-04 18:28 18.04015 -63.11446 20 ft 17 kts 262°
2026-05-04 18:28 18.03997 -63.11570 23 ft 16 kts 261°
2026-05-04 18:28 18.03979 -63.11691 24 ft 16 kts 261°
2026-05-04 18:29 18.03965 -63.11815 24 ft 17 kts 272°
2026-05-04 18:29 18.03987 -63.11923 25 ft 7 kts 285°
2026-05-04 18:29 18.03954 -63.11955 25 ft 8 kts 160°
2026-05-04 18:29 18.03951 -63.11896 25 ft 9 kts 76°
2026-05-04 18:30 18.04037 -63.11284 19 ft 100 kts 81°
2026-05-04 18:30 18.04171 -63.10360 48 ft 150 kts 83°
2026-05-04 18:30 18.04115 -63.09293 556 ft 148 kts 115°
2026-05-04 18:31 18.03382 -63.08521 1023 ft 160 kts 151°
2026-05-04 18:31 18.02303 -63.08179 1577 ft 164 kts 163°
2026-05-04 18:31 18.01175 -63.07965 1966 ft 171 kts 165°
2026-05-04 18:31 17.99936 -63.07752 2242 ft 185 kts 165°
2026-05-04 18:32 17.98612 -63.07527 2524 ft 200 kts 165°
2026-05-04 18:32 17.97182 -63.07289 2814 ft 216 kts 168°
2026-05-04 18:32 17.95579 -63.07489 2983 ft 251 kts 204°
2026-05-04 18:32 17.94261 -63.08781 3324 ft 276 kts 240°
2026-05-04 18:33 17.93818 -63.10784 3824 ft 288 kts 274°
2026-05-04 18:33 17.94045 -63.12846 4582 ft 290 kts 278°
2026-05-04 18:33 17.94294 -63.14949 5377 ft 292 kts 276°
2026-05-04 18:33 17.94445 -63.17064 6166 ft 294 kts 274°
2026-05-04 18:34 17.94513 -63.19229 6966 ft 297 kts 271°
2026-05-04 18:34 17.94523 -63.21365 7765 ft 298 kts 270°
2026-05-04 18:34 17.94502 -63.23535 8581 ft 299 kts 270°
2026-05-04 18:34 17.94463 -63.25715 9376 ft 301 kts 269°
2026-05-04 18:35 17.94415 -63.27920 10163 ft 302 kts 269°
2026-05-04 18:35 17.94365 -63.30130 10679 ft 312 kts 269°
2026-05-04 18:35 17.94308 -63.32470 11133 ft 322 kts 269°
2026-05-04 18:35 17.94250 -63.34832 11775 ft 325 kts 269°
2026-05-04 18:36 17.94191 -63.37203 12424 ft 326 kts 268°
2026-05-04 18:36 17.94131 -63.39567 13027 ft 329 kts 268°
2026-05-04 18:36 17.94068 -63.41953 13608 ft 331 kts 268°
2026-05-04 18:36 17.94004 -63.44402 14186 ft 333 kts 268°
2026-05-04 18:37 17.93940 -63.46806 14715 ft 334 kts 268°
2026-05-04 18:37 17.93875 -63.49265 14999 ft 334 kts 268°
2026-05-04 18:37 17.93810 -63.51691 15037 ft 335 kts 268°
2026-05-04 18:37 17.93746 -63.54116 15038 ft 334 kts 268°
2026-05-04 18:38 17.93681 -63.56570 15040 ft 334 kts 268°
2026-05-04 18:38 17.93615 -63.59015 15042 ft 334 kts 268°
2026-05-04 18:38 17.93551 -63.61434 15042 ft 333 kts 268°
2026-05-04 18:38 17.93485 -63.63876 15045 ft 334 kts 269°
2026-05-04 18:39 17.93538 -63.66287 15044 ft 334 kts 273°
2026-05-04 18:39 17.93803 -63.68716 15044 ft 333 kts 278°
2026-05-04 18:39 17.94231 -63.71113 15042 ft 333 kts 280°
2026-05-04 18:39 17.94685 -63.73502 15043 ft 334 kts 280°
2026-05-04 18:40 17.95143 -63.75898 15044 ft 335 kts 281°
2026-05-04 18:40 17.95598 -63.78295 15046 ft 335 kts 281°
2026-05-04 18:40 17.96053 -63.80696 15046 ft 335 kts 281°
2026-05-04 18:40 17.96501 -63.83071 15044 ft 335 kts 280°
2026-05-04 18:41 17.96954 -63.85469 15043 ft 335 kts 281°
2026-05-04 18:41 17.97403 -63.87869 15042 ft 335 kts 281°
2026-05-04 18:41 17.97854 -63.90272 15049 ft 335 kts 280°
2026-05-04 18:41 17.98303 -63.92665 15044 ft 334 kts 280°
2026-05-04 18:42 17.98752 -63.95062 15047 ft 334 kts 280°
2026-05-04 18:42 17.99201 -63.97457 15046 ft 334 kts 280°
2026-05-04 18:42 17.99647 -63.99846 15046 ft 333 kts 280°
2026-05-04 18:42 18.00091 -64.02230 15044 ft 334 kts 280°
2026-05-04 18:43 18.00541 -64.04634 15045 ft 333 kts 280°
2026-05-04 18:43 18.00982 -64.07001 15043 ft 334 kts 280°
2026-05-04 18:43 18.01432 -64.09416 15083 ft 337 kts 280°
2026-05-04 18:43 18.01879 -64.11815 15518 ft 340 kts 280°
2026-05-04 18:44 18.02331 -64.14247 16141 ft 339 kts 280°
2026-05-04 18:44 18.02630 -64.15855 16505 ft 340 kts 280°
2026-05-04 18:44 18.03237 -64.19109 17201 ft 342 kts 280°
2026-05-04 18:44 18.03694 -64.21571 17724 ft 343 kts 280°
2026-05-04 18:45 18.04153 -64.24042 18247 ft 344 kts 280°
2026-05-04 18:45 18.04606 -64.26488 18746 ft 346 kts 280°
2026-05-04 18:45 18.05070 -64.28991 19253 ft 347 kts 280°
2026-05-04 18:45 18.05528 -64.31462 19729 ft 349 kts 280°
2026-05-04 18:46 18.05994 -64.33979 20220 ft 351 kts 280°
2026-05-04 18:46 18.06457 -64.36482 20713 ft 352 kts 280°
2026-05-04 18:46 18.06923 -64.39007 21193 ft 353 kts 280°
2026-05-04 18:46 18.07392 -64.41548 21455 ft 361 kts 281°
2026-05-04 18:47 18.07875 -64.44169 21635 ft 371 kts 281°
2026-05-04 18:47 18.08373 -64.46867 21807 ft 380 kts 281°
2026-05-04 18:47 18.08882 -64.49625 21979 ft 389 kts 281°
2026-05-04 18:47 18.09400 -64.52436 22141 ft 398 kts 281°
2026-05-04 18:48 18.09933 -64.55331 22297 ft 407 kts 281°
2026-05-04 18:48 18.10470 -64.58247 22443 ft 415 kts 281°
2026-05-04 18:48 18.11025 -64.61274 22584 ft 422 kts 281°
2026-05-04 18:48 18.11582 -64.64306 22720 ft 429 kts 281°
2026-05-04 18:49 18.12150 -64.67408 22846 ft 436 kts 280°
2026-05-04 18:49 18.12730 -64.70572 22967 ft 443 kts 280°
2026-05-04 18:49 18.13318 -64.73787 23076 ft 449 kts 280°
2026-05-04 18:49 18.13907 -64.77011 23202 ft 454 kts 280°
2026-05-04 18:50 18.14502 -64.80269 23408 ft 457 kts 280°
2026-05-04 18:50 18.15103 -64.83566 23664 ft 457 kts 280°
2026-05-04 18:50 18.15696 -64.86835 23919 ft 458 kts 280°
2026-05-04 18:50 18.16288 -64.90099 24138 ft 459 kts 280°
2026-05-04 18:51 18.16883 -64.93378 24332 ft 460 kts 280°
2026-05-04 18:51 18.17471 -64.96718 24544 ft 460 kts 279°
2026-05-04 18:51 18.17924 -65.00033 24740 ft 461 kts 276°
2026-05-04 18:51 18.18298 -65.03376 24944 ft 461 kts 276°
2026-05-04 18:52 18.18661 -65.06715 25134 ft 461 kts 276°
2026-05-04 18:52 18.19020 -65.10054 25314 ft 462 kts 276°
2026-05-04 18:52 18.19379 -65.13403 25470 ft 463 kts 276°
2026-05-04 18:52 18.19743 -65.16791 25635 ft 463 kts 276°
2026-05-04 18:53 18.20101 -65.20144 25791 ft 463 kts 276°
2026-05-04 18:53 18.20458 -65.23473 25953 ft 463 kts 276°
2026-05-04 18:53 18.20816 -65.26833 26084 ft 463 kts 276°
2026-05-04 18:53 18.21171 -65.30175 26216 ft 463 kts 276°
2026-05-04 18:54 18.21528 -65.33537 26384 ft 462 kts 276°
2026-05-04 18:54 18.21887 -65.36920 26557 ft 462 kts 276°
2026-05-04 18:54 18.22241 -65.40255 26737 ft 460 kts 276°
2026-05-04 18:54 18.22591 -65.43569 26929 ft 459 kts 276°
2026-05-04 18:55 18.22941 -65.46883 27112 ft 458 kts 275°
2026-05-04 18:55 18.23640 -65.53513 27464 ft 456 kts 275°
2026-05-04 18:55 18.23990 -65.56844 27637 ft 455 kts 275°
2026-05-04 18:56 18.24334 -65.60133 27805 ft 455 kts 275°
2026-05-04 18:56 18.24679 -65.63422 27971 ft 454 kts 275°
2026-05-04 18:56 18.25024 -65.66736 28153 ft 453 kts 275°
2026-05-04 18:56 18.25367 -65.70010 28364 ft 452 kts 275°
2026-05-04 18:57 18.25707 -65.73271 28561 ft 451 kts 275°
2026-05-04 18:57 18.26044 -65.76514 28765 ft 449 kts 275°
2026-05-04 18:57 18.26385 -65.79791 28956 ft 449 kts 275°
2026-05-04 18:57 18.26726 -65.83069 29145 ft 448 kts 275°
2026-05-04 18:58 18.27060 -65.86289 29345 ft 447 kts 275°
2026-05-04 18:58 18.27394 -65.89522 29536 ft 446 kts 275°
2026-05-04 18:58 18.27730 -65.92783 29727 ft 445 kts 275°
2026-05-04 18:58 18.28060 -65.95995 29927 ft 444 kts 275°
2026-05-04 18:59 18.28392 -65.99214 30133 ft 443 kts 275°
2026-05-04 18:59 18.28725 -66.02456 30321 ft 443 kts 275°
2026-05-04 18:59 18.29051 -66.05647 30598 ft 440 kts 275°
2026-05-04 18:59 18.29372 -66.08784 31136 ft 431 kts 275°
2026-05-04 19:00 18.29693 -66.11926 31447 ft 429 kts 275°
2026-05-04 19:00 18.30012 -66.15035 31563 ft 431 kts 275°
2026-05-04 19:00 18.30329 -66.18154 31699 ft 432 kts 275°
2026-05-04 19:00 18.30647 -66.21286 31852 ft 432 kts 275°
2026-05-04 19:01 18.30965 -66.24438 31999 ft 432 kts 275°
2026-05-04 19:01 18.31281 -66.27570 32135 ft 433 kts 275°
2026-05-04 19:01 18.31599 -66.30701 32279 ft 432 kts 275°
2026-05-04 19:01 18.31917 -66.33855 32442 ft 432 kts 275°
2026-05-04 19:02 18.32231 -66.36979 32588 ft 432 kts 275°
2026-05-04 19:02 18.32549 -66.40125 32763 ft 431 kts 275°
2026-05-04 19:02 18.32866 -66.43275 32988 ft 429 kts 275°
2026-05-04 19:02 18.33176 -66.46370 33277 ft 426 kts 276°
2026-05-04 19:03 18.33487 -66.49473 33457 ft 426 kts 275°
2026-05-04 19:03 18.33796 -66.52560 33759 ft 422 kts 275°
2026-05-04 19:03 18.34100 -66.55611 33993 ft 421 kts 275°
2026-05-04 19:03 18.34402 -66.58639 34049 ft 421 kts 275°
2026-05-04 19:04 18.35011 -66.64764 34061 ft 421 kts 275°
2026-05-04 19:04 18.35620 -66.70901 34055 ft 420 kts 275°
2026-05-04 19:05 18.36217 -66.76978 34057 ft 420 kts 275°
2026-05-04 19:05 18.36817 -66.83064 34050 ft 419 kts 275°
2026-05-04 19:06 18.37418 -66.89177 34047 ft 419 kts 275°
2026-05-04 19:06 18.38011 -66.95248 34047 ft 419 kts 275°
2026-05-04 19:07 18.38606 -67.01342 34043 ft 419 kts 275°
2026-05-04 19:07 18.39198 -67.07432 34036 ft 419 kts 275°
2026-05-04 19:08 18.39783 -67.13501 34042 ft 418 kts 275°
2026-05-04 19:08 18.40369 -67.19576 34039 ft 419 kts 275°
2026-05-04 19:09 18.40959 -67.25700 34035 ft 419 kts 275°
2026-05-04 19:09 18.41541 -67.31786 34032 ft 419 kts 275°
2026-05-04 19:10 18.42027 -67.36860 34027 ft 420 kts 275°
2026-05-04 19:10 18.42703 -67.43967 34020 ft 420 kts 275°
2026-05-04 19:11 18.43280 -67.50066 34029 ft 419 kts 275°
2026-05-04 19:11 18.43857 -67.56155 34018 ft 419 kts 275°
2026-05-04 19:12 18.44713 -67.65268 33812 ft 412 kts 275°
2026-05-04 19:12 18.44993 -67.68262 33202 ft 408 kts 275°
2026-05-04 19:13 18.45272 -67.71233 32716 ft 401 kts 275°
2026-05-04 19:13 18.45539 -67.74110 32135 ft 398 kts 275°
2026-05-04 19:13 18.45774 -67.76616 31477 ft 400 kts 275°
2026-05-04 19:13 18.46048 -67.79541 30714 ft 400 kts 275°
2026-05-04 19:14 18.46317 -67.82448 30126 ft 397 kts 275°
2026-05-04 19:14 18.46580 -67.85294 29557 ft 394 kts 275°
2026-05-04 19:14 18.46843 -67.88148 28950 ft 392 kts 275°
2026-05-04 19:14 18.47104 -67.90987 28346 ft 391 kts 275°
2026-05-04 19:15 18.47364 -67.93816 27748 ft 389 kts 275°
2026-05-04 19:15 18.47624 -67.96653 27172 ft 387 kts 275°
2026-05-04 19:15 18.47863 -68.00365 26409 ft 384 kts 271°
2026-05-04 19:15 18.47878 -68.02258 26048 ft 381 kts 269°
2026-05-04 19:16 18.47829 -68.04965 25986 ft 367 kts 269°
2026-05-04 19:16 18.47776 -68.07644 26007 ft 364 kts 269°
2026-05-04 19:16 18.47720 -68.10311 26014 ft 363 kts 269°
2026-05-04 19:16 18.47665 -68.12951 26023 ft 363 kts 269°
2026-05-04 19:17 18.47608 -68.15609 26024 ft 363 kts 269°
2026-05-04 19:17 18.47551 -68.18290 26023 ft 363 kts 269°
2026-05-04 19:17 18.47495 -68.20932 25889 ft 365 kts 269°
2026-05-04 19:17 18.47436 -68.23606 25338 ft 364 kts 269°
2026-05-04 19:18 18.47377 -68.26274 24822 ft 363 kts 269°
2026-05-04 19:18 18.47320 -68.28885 24345 ft 360 kts 269°
2026-05-04 19:18 18.47261 -68.31513 23868 ft 358 kts 269°
2026-05-04 19:18 18.47203 -68.34103 23394 ft 356 kts 269°
2026-05-04 19:19 18.47144 -68.36709 22939 ft 353 kts 268°
2026-05-04 19:19 18.47087 -68.39271 22479 ft 351 kts 269°
2026-05-04 19:19 18.47028 -68.41830 22044 ft 349 kts 269°
2026-05-04 19:19 18.46971 -68.44383 21604 ft 347 kts 268°
2026-05-04 19:20 18.46913 -68.46900 21179 ft 346 kts 268°
2026-05-04 19:20 18.46855 -68.49401 20738 ft 345 kts 268°
2026-05-04 19:20 18.46796 -68.51928 20278 ft 344 kts 268°
2026-05-04 19:20 18.46737 -68.54450 19856 ft 343 kts 269°
2026-05-04 19:21 18.46678 -68.56925 19424 ft 342 kts 269°
2026-05-04 19:21 18.46618 -68.59430 18977 ft 341 kts 269°
2026-05-04 19:21 18.46559 -68.61927 18534 ft 340 kts 269°
2026-05-04 19:21 18.46500 -68.64420 18112 ft 340 kts 269°
2026-05-04 19:22 18.46441 -68.66869 17674 ft 339 kts 268°
2026-05-04 19:22 18.46381 -68.69353 17256 ft 339 kts 268°
2026-05-04 19:22 18.46320 -68.71838 16825 ft 338 kts 268°
2026-05-04 19:22 18.46260 -68.74290 16391 ft 338 kts 268°
2026-05-04 19:23 18.46199 -68.76753 16117 ft 331 kts 268°
2026-05-04 19:23 18.46141 -68.79111 16043 ft 318 kts 268°
2026-05-04 19:23 18.46070 -68.81417 16014 ft 310 kts 268°
2026-05-04 19:23 18.45992 -68.83659 16000 ft 309 kts 268°
2026-05-04 19:24 18.45912 -68.85922 16004 ft 310 kts 268°
2026-05-04 19:24 18.45832 -68.88191 15994 ft 310 kts 268°
2026-05-04 19:24 18.45752 -68.90472 15997 ft 310 kts 268°
2026-05-04 19:24 18.45672 -68.92728 15999 ft 309 kts 268°
2026-05-04 19:25 18.45592 -68.94987 15998 ft 309 kts 268°
2026-05-04 19:25 18.45513 -68.97250 15998 ft 309 kts 268°
2026-05-04 19:25 18.45433 -68.99506 15996 ft 308 kts 268°
2026-05-04 19:25 18.45352 -69.01769 15810 ft 311 kts 268°
2026-05-04 19:26 18.45272 -69.04031 15359 ft 313 kts 268°
2026-05-04 19:26 18.45190 -69.06345 14916 ft 315 kts 268°
2026-05-04 19:26 18.45109 -69.08629 14479 ft 316 kts 268°
2026-05-04 19:26 18.45026 -69.10953 14069 ft 316 kts 268°
2026-05-04 19:27 18.44941 -69.13261 13696 ft 316 kts 268°
2026-05-04 19:27 18.44857 -69.15562 13345 ft 314 kts 268°
2026-05-04 19:27 18.44774 -69.17839 12947 ft 314 kts 268°
2026-05-04 19:27 18.44691 -69.20133 12677 ft 309 kts 268°
2026-05-04 19:28 18.44609 -69.22360 12433 ft 304 kts 268°
2026-05-04 19:28 18.44529 -69.24566 12232 ft 297 kts 268°
2026-05-04 19:28 18.44453 -69.26691 12105 ft 288 kts 268°
2026-05-04 19:28 18.44411 -69.28799 11854 ft 284 kts 269°
2026-05-04 19:29 18.44382 -69.30865 11605 ft 279 kts 269°
2026-05-04 19:29 18.44354 -69.32873 11250 ft 274 kts 268°
2026-05-04 19:29 18.44322 -69.34858 10992 ft 270 kts 268°
2026-05-04 19:29 18.44289 -69.36832 10745 ft 266 kts 268°
2026-05-04 19:30 18.44256 -69.38749 10507 ft 262 kts 268°
2026-05-04 19:30 18.44223 -69.40672 10245 ft 260 kts 268°
2026-05-04 19:30 18.44202 -69.42573 9944 ft 259 kts 273°
2026-05-04 19:30 18.44711 -69.44376 9579 ft 261 kts 307°
2026-05-04 19:31 18.46025 -69.45654 9290 ft 259 kts 323°
2026-05-04 19:31 18.47452 -69.46780 9016 ft 258 kts 323°
2026-05-04 19:31 18.48874 -69.47941 8710 ft 257 kts 322°
2026-05-04 19:31 18.50278 -69.49105 8428 ft 255 kts 322°
2026-05-04 19:32 18.51678 -69.50279 8153 ft 254 kts 322°
2026-05-04 19:32 18.53046 -69.51429 7846 ft 254 kts 322°
2026-05-04 19:32 18.54430 -69.52595 7549 ft 253 kts 322°
2026-05-04 19:32 18.55799 -69.53751 7177 ft 249 kts 322°
2026-05-04 19:33 18.57142 -69.54885 6707 ft 249 kts 322°
2026-05-04 19:33 18.58474 -69.56010 6300 ft 244 kts 322°
2026-05-04 19:33 18.59787 -69.57120 5950 ft 236 kts 322°
2026-05-04 19:33 18.61059 -69.58195 5640 ft 229 kts 322°
2026-05-04 19:34 18.62274 -69.59222 5364 ft 221 kts 322°
2026-05-04 19:34 18.63460 -69.60224 5093 ft 214 kts 322°
2026-05-04 19:34 18.64599 -69.61187 4875 ft 208 kts 322°
2026-05-04 19:34 18.65578 -69.62321 4583 ft 212 kts 295°
2026-05-04 19:35 18.65872 -69.63817 4342 ft 212 kts 264°
2026-05-04 19:35 18.65427 -69.65276 4093 ft 211 kts 237°
2026-05-04 19:35 18.64586 -69.66564 3820 ft 215 kts 233°
2026-05-04 19:35 18.63698 -69.67852 3562 ft 220 kts 233°
2026-05-04 19:36 18.62801 -69.69180 3309 ft 221 kts 234°
2026-05-04 19:36 18.61937 -69.70486 3264 ft 220 kts 234°
2026-05-04 19:36 18.61059 -69.71827 3231 ft 222 kts 234°
2026-05-04 19:36 18.60026 -69.73031 3049 ft 219 kts 206°
2026-05-04 19:37 18.58588 -69.73312 2893 ft 209 kts 162°
2026-05-04 19:37 18.57299 -69.72729 2803 ft 196 kts 149°
2026-05-04 19:37 18.56124 -69.72083 2677 ft 188 kts 150°
2026-05-04 19:37 18.54940 -69.71503 2424 ft 186 kts 153°
2026-05-04 19:38 18.53760 -69.70990 2190 ft 183 kts 155°
2026-05-04 19:38 18.52570 -69.70509 1953 ft 179 kts 156°
2026-05-04 19:38 18.51414 -69.70061 1657 ft 173 kts 157°
2026-05-04 19:38 18.50305 -69.69639 1375 ft 167 kts 157°
2026-05-04 19:39 18.49235 -69.69237 1133 ft 158 kts 157°
2026-05-04 19:39 18.48221 -69.68858 883 ft 147 kts 157°
2026-05-04 19:39 18.47303 -69.68517 646 ft 136 kts 157°
2026-05-04 19:39 18.46429 -69.68186 448 ft 132 kts 156°
2026-05-04 19:40 18.45558 -69.67847 296 ft 131 kts 157°
2026-05-04 19:40 18.44698 -69.67529 143 ft 130 kts 158°
2026-05-04 19:40 18.43858 -69.67225 63 ft 120 kts 155°
2026-05-04 19:40 18.43201 -69.66979 65 ft 76 kts 160°
2026-05-04 19:41 18.42749 -69.66814 70 ft 65 kts 160°
2026-05-04 19:41 18.42381 -69.66680 71 ft 38 kts 161°
2026-05-04 19:41 18.42222 -69.66714 70 ft 17 kts 262°
2026-05-04 19:41 18.42243 -69.66783 69 ft 6 kts 300°
2026-05-04 19:42 18.42277 -69.66826 68 ft 8 kts 320°
2026-05-04 19:42 18.42343 -69.66860 67 ft 11 kts 339°
2026-05-04 19:42 18.42432 -69.66893 67 ft 15 kts 340°
2026-05-04 19:42 18.42567 -69.66944 66 ft 22 kts 341°
2026-05-04 19:43 18.42714 -69.66997 65 ft 22 kts 341°
2026-05-04 19:43 18.42863 -69.67051 64 ft 19 kts 340°
2026-05-04 19:43 18.42948 -69.67104 63 ft 11 kts 288°
2026-05-04 19:43 18.42954 -69.67197 61 ft 14 kts 275°
2026-05-04 19:44 18.42963 -69.67284 57 ft 5 kts 275°
2026-05-04 19:44 18.42964 -69.67342 55 ft 9 kts 245°
2026-05-04 19:44 18.42912 -69.67369 55 ft 3 kts 238°
2026-05-04 19:44 18.42907 -69.67414 54 ft 7 kts 260°
2026-05-04 19:45 18.42905 -69.67428 53 ft 0 kts 261°